This is the latest recevied weather packets stored in our database for station/object KD4UFD. If no packets are shown the sender has not sent any weather packets the latest 10 day(s).
| Time | Temp. | Humidity | Pressure | Rain* | Wind** | Luminosity | Snow |
|---|---|---|---|---|---|---|---|
| 1778130491 | 15° C | 99% | 1012.6 hPa | 4.32 mm | - | 0 W/m² | - |
| 1778130187 | 15° C | 99% | 1012.5 hPa | 3.05 mm | - | 0 W/m² | - |
| 1778129884 | 15° C | 99% | 1012.7 hPa | 1.78 mm | - | 0 W/m² | - |
| 1778129580 | 15° C | 99% | 1012.5 hPa | 1.27 mm | - | 0 W/m² | - |
| 1778129278 | 15° C | 99% | 1012.2 hPa | 3.05 mm | - | 0 W/m² | - |
| 1778128974 | 15° C | 99% | 1012.2 hPa | 7.87 mm | - | 0 W/m² | - |
| 1778128670 | 15° C | 99% | 1011.9 hPa | 7.87 mm | - | 0 W/m² | - |
| 1778128367 | 15° C | 99% | 1011.8 hPa | 3.05 mm | - | 0 W/m² | - |
| 1778128063 | 15° C | 99% | 1012 hPa | 0 mm | - | 0 W/m² | - |
| 1778127758 | 15° C | 99% | 1011.9 hPa | 0 mm | - | 0 W/m² | - |
| 1778127456 | 15° C | 99% | 1012.1 hPa | 0 mm | - | 0 W/m² | - |
| 1778127152 | 15.56° C | 99% | 1012 hPa | 0 mm | - | 0 W/m² | - |
| 1778126850 | 15.56° C | 99% | 1012.2 hPa | 0 mm | - | 0 W/m² | - |
| 1778126545 | 15.56° C | 99% | 1012.3 hPa | 0 mm | - | 0 W/m² | - |
| 1778126242 | 15.56° C | 99% | 1012.2 hPa | 0 mm | - | 0 W/m² | - |
| 1778125937 | 15.56° C | 99% | 1012 hPa | 0 mm | - | 0 W/m² | - |
| 1778125635 | 15.56° C | 99% | 1012.4 hPa | 0 mm | - | 0 W/m² | - |
| 1778125332 | 15.56° C | 99% | 1012.1 hPa | 0 mm | - | 0 W/m² | - |
| 1778125030 | 15.56° C | 99% | 1012.2 hPa | 0 mm | - | 0 W/m² | - |
| 1778124727 | 15.56° C | 99% | 1012.7 hPa | 0 mm | - | 0 W/m² | - |
| 1778124425 | 16.11° C | 99% | 1012.3 hPa | 1.27 mm | - | 0 W/m² | - |
| 1778124120 | 16.11° C | 99% | 1012.7 hPa | 1.27 mm | - | 0 W/m² | - |
| 1778123817 | 16.11° C | 99% | 1012.6 hPa | 0 mm | - | 0 W/m² | - |
| 1778123514 | 16.11° C | 99% | 1012.7 hPa | 0 mm | - | 0 W/m² | - |
| 1778123210 | 16.11° C | 99% | 1012.7 hPa | 1.78 mm | - | 0 W/m² | - |
* Rain latest hour (hover to see other rain measurements)
** Current wind speed in m/s (hover to see current wind gust speed)